Voltar ao catálogo

COSMOS 2491 DEB

LostPO
NORAD 57553·DEBRIS·🇷🇺 Russia

Lançado Dec 25, 2013 de Plesetsk Cosmodrome

Loading…

Próximas Passagens (próximas 24 horas)

TLE

ObsoletoSource: Space-Track

Época: Aug 11, 2026, 09:43 UTC

1 57553U 13076AQ  26223.40509507  .00000076  00000-0  43042-3 0  9996
2 57553  82.4826 113.2784 0044255 192.2470 167.7542 12.50322985148673

Acompanhe COSMOS 2491 DEB em tempo real com AllMySat

Download on the App Store